Regional Weather Roundup
Issued by NWS Charleston, SC

Current Version | Previous Version | Graphics & Text | Print | Product List | Glossary On
Versions: 1 2 3 4 5 6 7 8 9 10 11 12 13 14 15 16 17 18 19 20 21 22 23 24 25 26 27 28 29 30 31 32 33 34 35 36 37 38 39 40 41 42 43 44 45 46 47 48 49 50
000 ASUS42 KCHS 301125 RWRCHS REGIONAL WEATHER ROUNDUP NATIONAL WEATHER SERVICE CHARLESTON SC 700 AM EDT TUE SEP 30 2014 NOTE: "FAIR" INDICATES FEW OR NO CLOUDS BELOW 12,000 FEET WITH NO SIGNIFICANT WEATHER AND/OR OBSTRUCTIONS TO VISIBILITY. NOT ALL STATIONS ARE QUALITY CONTROLLED BY THE NATIONAL WEATHER SERVICE. USE DATA WITH CAUTION...ESPECIALLY DEWPOINT OBSERVATIONS. SCZ027-030-031-034>040-042>050-301200- ...SOUTH CAROLINA... CITY SKY/WX TMP DP RH WIND PRES REMARKS N CHARLESTON MOCLDY 65 62 90 N8 29.88R WATERFRONT PRK NOT AVBL FORT JOHNSON NOT AVBL MOUNT PLEASANT PTSUNNY 64 63 94 N5 29.88S JOHNS ISLAND CLOUDY 64 64 100 N6 29.88S PINOPOLIS N/A 66 63 88 NE9 29.83R MONCKS CORNER PTSUNNY 66 64 94 N5 29.89S SUMMERVILLE FAIR 63 63 100 N3 29.90S BEAUFORT MCAS CLOUDY 65 63 93 N6 29.89R BEAUFORT ARPT CLOUDY 64 64 100 N9 29.88R HILTON HEAD IS CLOUDY 66 64 94 N9 29.88R GEORGETOWN NOT AVBL WALTERBORO CLOUDY 64 N/A N/A N5 29.91R ORANGEBURG CLEAR 62 59 90 N3 29.92R BARNWELL FAIR 63 61 94 N3 29.93R AIKEN FOG 61 61 100 CALM 29.97R VSB 3/4 MANNING FAIR 61 N/A N/A CALM 29.92R KINGSTREE NOT AVBL COLUMBIA PTCLDY 64 61 90 CALM 29.92R SUMTER CLEAR 61 57 86 N2 29.91R FLORENCE CLEAR 61 59 93 N5 29.91R MYRTLE BEACH MOCLDY 64 61 88 N9 29.88R N MYRTLE BEACH MOCLDY 63 61 93 N6 29.88R FOG $$ GAZ063-065-086>088-099>101-113>116-118-119-134-136>141-150-301200- ...GEORGIA... CITY SKY/WX TMP DP RH WIND PRES REMARKS SAVANNAH ARPT CLOUDY 68 64 87 N7 29.88R HUNTER AAF CLOUDY 66 66 100 N6 29.86R FORT STEWART CLOUDY 67 65 93 N5 29.87R STATESBORO NOT AVBL SYLVANIA CLOUDY 67 67 99 NE5 29.92R FOG CLAXTON N/A 68 68 100 CALM 29.90R THOMSON MOCLDY 67 67 100 CALM 29.98S AUGUSTA-BUSH MOCLDY 63 61 93 CALM 29.93R AUGUSTA-DANIEL CLOUDY 65 63 93 N5 29.94R SWAINSBORO CLOUDY 68 68 100 NE5 29.93R VIDALIA CLOUDY 66 64 94 N6 29.91R ALMA CLOUDY 67 66 97 CALM 29.89R FOG WAYCROSS CLOUDY 70 70 99 NE7 29.88R JESUP CLOUDY 70 68 94 NE3 29.89R BRUNSWICK CLOUDY 70 66 88 N6 29.87R SAINT SIMONS CLOUDY 69 68 96 N9 29.85R $$ SCZ027-028-034-036>038-045-046-048>050-GAZ119-141-301200- ...LAKE AND SUPPLEMENTAL COASTAL OBSERVATIONS... STATION/POSITION TIME TEMP WIND PRES WAVE SWELL AIR SEA DIR/SP/G HT/PER HT/PER/DIR (UTC) (F) (DEG/KT/KT) (MB) (FT/S) (FT/S/D) UPR LAKE MARION NOT AVBL WINYAH BAY 1100 64 350/ 5 1011.0S LAKE MURRAY 1000 62 350/ 2/ 4 1012.9R ACE BASIN NERRS 1100 64 10/ 3 1012.0R FORT PULASKI 1100 68 350/ 7/ 9 1011.8R SAPELO ISLAND NOT AVBL $$ ANZ835-935-AMZ111-154-330-350-352-354-374-450-454-472-301200- ...C-MAN AND BUOY OBSERVATIONS... STATION/POSITION TIME TEMP WIND PRES WAVE SWELL AIR SEA DIR/SP/G HT/PER HT/PER/DIR (UTC) (F) (DEG/KT/KT) (MB) (FT/S) (FT/S/D) FOLLY BEACH CMAN 1100 65 350/ 8/ 11 1011.8R BUOY 41004 1100 75 81 20/ 17/ 21 1009.5R 5/ 6 2/15 BUOY 41008 1100 74 79 30/ 17/ 21 1010.1R 5/ 6 2/ 70/ 8 5E ST. MARYS GA 1100 79 N/A 3/ 9 FRYING PAN BUOY NOT AVBL BUOY 41025 1100 71 350/ 16/ 17 1011.5R 4/ 5 2/ 40/ 7 CAPE LOOKOUT NC 1100 69 20/ 9/ 10 1011.5R BUOY 41002 1000 78 81 220/ 4/ 4 1010.4S 3/ 8 2/ 80/ 8 BUOY 41010 1100 81 85 240/ 14/ 16 1009.6R 3/ 9 2/ 90/ 9 BUOY 41012 NOT AVBL ST AUGUSTINE FL 1100 73 300/ 3/ 4 1010.7R CAPERS NEARSHORE 1000 67 30/ 14/ 16 N/A FRIPP NEARSHORE NOT AVBL $$

USA.gov is the U.S. government's official web portal to all federal, state and local government web resources and services.